Location: Newark
(25.0000°N, 73.5000°E)
Time: 01:10:13
(UTC+00:00)

Tiros 1 despin weight - Pass Details

Date: 06 March 2021
Orbit: 593 x 641 km, 48.2° (Epoch: 15 April)

Event Time Altitude Azimuth Distance (km) Brightness Sun altitude
Rises 15:18:12 0° 208° (SSW) 2,822 ? -29.6°
Enters shadow 15:19:53 - 204° (SSW) 2,179 ? -30.0°
Reaches altitude 10° 15:20:34 10° 201° (SSW) 1,929 - -30.2°
Maximum altitude 15:24:43 40° 131° (SE) 885 - -31.1°
Drops below altitude 10° 15:28:56 10° 61° (ENE) 1,962 - -32.0°
Sets 15:31:21 0° 54° (NE) 2,877 - -32.6°
